QPF
0.00 0.00 0.00 0.00 0.00 0.00 0.00 0.00 0.00 0.00 0.00 0.00 0.00 0.00 0.00 0.00 0.01 0.00 0.00 0.00 0.00 0.00
0.00 0.00 0.00 0.00 0.00 0.00 0.00 0.00 0.00 0.00 0.00 0.00 0.00 0.00 0.00 0.00 0.01 0.01 0.01 0.01 0.00 0.00
0.00 0.00 0.00 0.00 0.00 0.00 0.00 0.00 0.00 0.00 0.00 0.00 0.00 0.00 0.01 0.01 0.01 0.01 0.01 0.00 0.00 0.00
0.00 0.00 0.00 0.00 0.00 0.00 0.00 0.00 0.00 0.00 0.00 0.00 0.00 0.00 0.01 0.01 0.01 0.01 0.01 0.01 0.01 0.00
0.00 0.00 0.00 0.00 0.00 0.00 0.00 0.00 0.00 0.00 0.00 0.00 0.00 0.00 0.01 0.01 0.01 0.00 0.01 0.00 0.00 0.00
0.00 0.00 0.00 0.00 0.00 0.00 0.00 0.00 0.00 0.00 0.00 0.00 0.01 0.00 0.00 0.00 0.00 0.02 0.01 0.00 0.01 0.01
0.00 0.00 0.00 0.00 0.00 0.00 0.00 0.00 0.00 0.00 0.00 0.00 0.00 0.00 0.00 0.00 0.00 0.01 0.00 0.01 0.00 0.00
0.00 0.00 0.00 0.00 0.00 0.00 0.00 0.00 0.00 0.00 0.00 0.00 0.00 0.00 0.00 0.00 0.00 0.00 0.00 0.00 0.00 0.01
0.00 0.00 0.00 0.00 0.00 0.00 0.00 0.00 0.00 0.00 0.00 0.00 0.00 0.00 0.00 0.00 0.00 0.00 0.00 0.00 0.00 0.00
0.00 0.00 0.00 0.00 0.00 0.00 0.00 0.00 0.00 0.01 0.00 0.00 0.00 0.00 0.00 0.00 0.00 0.00 0.00 0.00 0.00 0.00
0.00 0.00 0.00 0.00 0.00 0.00 0.00 0.00 0.01 0.01 0.00 0.00 0.00 0.00 0.00 0.00 0.00 0.00 0.00 0.00 0.00 0.00
0.00 0.00 0.00 0.00 0.00 0.00 0.00 0.00 0.01 0.00 0.00 0.00 0.00 0.00 0.00 0.00 0.00 0.00 0.00 0.00 0.00 0.00
0.00 0.00 0.00 0.00 0.00 0.00 0.00 0.00 0.00 0.00 0.00 0.00 0.00 0.00 0.00 0.01 0.01 0.00 0.00 0.00 0.00 0.00
0.00 0.00 0.00 0.00 0.00 0.00 0.00 0.00 0.00 0.00 0.00 0.00 0.00 0.00 0.00 0.00 0.00 0.00 0.00 0.00 0.00 0.00
MSLP
1019.58 1019.43 1019.51 1019.57 1019.58 1019.41 1019.23 1018.97 1018.86 1018.92 1018.60 1018.17 1017.78 1017.48 1017.30 1016.92 1016.72 1016.77 1016.78 1016.70 1016.63 1016.47
1019.49 1019.55 1019.50 1019.51 1019.50 1019.27 1019.20 1018.77 1018.57 1018.56 1018.26 1017.85 1017.37 1017.14 1016.92 1016.55 1016.49 1016.40 1016.26 1016.03 1016.02 1015.99
1019.45 1019.55 1019.58 1019.52 1019.32 1019.13 1018.87 1018.57 1018.45 1018.21 1017.90 1017.36 1017.02 1016.86 1016.59 1016.21 1016.05 1015.96 1015.77 1015.71 1015.65 1015.56
1019.54 1019.61 1019.53 1019.36 1019.11 1018.92 1018.60 1018.28 1018.20 1017.92 1017.54 1017.18 1016.92 1016.57 1016.23 1015.92 1015.70 1015.55 1015.38 1015.20 1015.15 1015.08
1019.52 1019.40 1019.26 1019.01 1018.80 1018.60 1018.28 1018.14 1017.99 1017.64 1017.29 1016.96 1016.63 1016.24 1015.92 1015.43 1015.26 1015.19 1015.04 1014.90 1014.82 1014.62
1019.34 1019.26 1019.06 1018.90 1018.72 1018.45 1018.22 1017.93 1017.69 1017.38 1017.03 1016.63 1016.35 1015.98 1015.61 1015.48 1015.17 1014.91 1014.82 1014.47 1014.17 1013.86
1019.19 1019.04 1018.93 1018.79 1018.53 1018.33 1018.10 1017.78 1017.39 1017.10 1016.75 1016.43 1016.14 1015.83 1015.53 1015.30 1014.98 1014.84 1014.51 1014.24 1014.00 1013.79
1018.95 1018.87 1018.76 1018.47 1018.24 1018.19 1017.91 1017.59 1017.25 1016.81 1016.52 1016.28 1016.07 1015.69 1015.54 1015.21 1014.97 1014.83 1014.65 1014.42 1013.94 1013.46
1018.88 1018.77 1018.56 1018.27 1018.25 1018.09 1017.76 1017.36 1017.00 1016.64 1016.35 1016.20 1016.01 1015.91 1015.66 1015.44 1015.12 1015.04 1014.92 1014.44 1013.94 1013.59
1018.78 1018.61 1018.40 1018.34 1018.31 1018.06 1017.68 1017.34 1016.86 1016.54 1016.38 1016.32 1015.96 1016.11 1015.78 1015.60 1015.18 1015.16 1014.96 1014.63 1014.29 1014.02
1018.80 1018.60 1018.54 1018.49 1018.29 1018.00 1017.54 1017.25 1016.97 1016.62 1016.64 1016.49 1016.30 1016.31 1015.94 1015.68 1015.28 1015.24 1015.05 1014.91 1014.62 1014.33
1018.99 1018.89 1018.86 1018.70 1018.42 1018.03 1017.63 1017.32 1016.94 1017.01 1016.95 1016.56 1016.47 1016.51 1016.20 1015.87 1015.60 1015.35 1015.24 1015.34 1015.38 1014.78
1019.31 1019.42 1019.09 1018.74 1018.50 1018.13 1017.80 1017.37 1017.10 1017.31 1017.34 1017.36 1017.04 1016.86 1016.58 1016.31 1016.16 1015.82 1015.31 1015.55 1015.71 1015.79
1019.79 1019.60 1019.26 1018.98 1018.70 1018.33 1017.82 1017.54 1017.48 1017.42 1017.70 1017.54 1017.51 1017.20 1017.02 1016.75 1016.44 1016.45 1015.94 1016.12 1016.06 1016.43
Thickness
5617 5610 5600 5590 5582 5576 5568 5561 5553 5545 5540 5537 5533 5528 5521 5518 5512 5506 5498 5492 5487 5484
5607 5598 5590 5581 5572 5566 5557 5552 5545 5536 5532 5528 5524 5519 5513 5510 5504 5497 5491 5487 5483 5479
5597 5587 5578 5569 5562 5555 5548 5542 5535 5529 5524 5521 5517 5511 5506 5503 5498 5492 5487 5482 5478 5475
5585 5574 5565 5557 5551 5544 5538 5533 5526 5521 5517 5513 5507 5503 5500 5498 5494 5489 5485 5481 5476 5470
5572 5563 5555 5548 5541 5534 5529 5522 5516 5512 5508 5504 5500 5498 5497 5497 5494 5489 5484 5479 5471 5465
5562 5552 5542 5534 5528 5523 5518 5513 5508 5504 5500 5498 5495 5494 5495 5492 5490 5489 5485 5481 5475 5471
5550 5540 5530 5522 5516 5512 5507 5503 5500 5496 5493 5492 5490 5491 5491 5490 5490 5489 5488 5484 5481 5477
5540 5530 5521 5515 5509 5502 5498 5493 5490 5489 5487 5486 5486 5488 5488 5489 5490 5489 5488 5485 5485 5486
5532 5523 5514 5507 5499 5492 5487 5484 5483 5482 5482 5482 5483 5482 5483 5485 5487 5487 5485 5488 5489 5489
5526 5516 5507 5497 5488 5481 5477 5474 5474 5475 5475 5476 5480 5477 5480 5482 5487 5487 5487 5490 5491 5492
5517 5508 5497 5485 5477 5471 5469 5466 5465 5468 5468 5471 5474 5472 5476 5480 5487 5488 5489 5490 5492 5494
5510 5498 5484 5474 5466 5461 5458 5456 5459 5460 5462 5468 5471 5469 5473 5480 5485 5489 5490 5489 5488 5495
5502 5486 5477 5467 5457 5452 5450 5452 5456 5456 5459 5460 5466 5468 5472 5478 5482 5485 5492 5490 5489 5488
5494 5483 5474 5463 5454 5450 5452 5454 5456 5459 5458 5462 5463 5469 5471 5475 5481 5481 5489 5487 5490 5488